396  
ASUS44 KJAN 241010  
RWRMS  
 
MISSISSIPPI HOURLY WEATHER ROUNDUP  
NATIONAL WEATHER SERVICE JACKSON MS  
500 AM CDT THU AUG 24 2017  
 
NOTE: "FAIR: INDICATES FEW OR NO CLOUDS BELOW 12,000 FEET WITH NO  
SIGNIFICANT WEATHER AND/OR S TO VISIBILITY
.  
 
MSZ001>002-007>008-010>013-018>021-025>028-034>036-241100-  
NORTHWEST MISSISSIPPI  
 
CITY SKY/WX TMP DP RH WIND PRES REMARKS
 
BATESVILLE FAIR 64 62 93 CALM 30.00R  
CLARKSDALE N/A 66 66 100 CALM 29.99R  
CLEVELAND FAIR 69 68 98 N7 29.97R  
GREENWOOD CLEAR 69 65 86 N7 29.95R  
GREENVILLE PTCLDY 70 65 84 NE6 29.96R  
OXFORD FAIR 63 59 88 NE5 30.01R  
TUNICA N/A 61 59 94 N3 30.01R  
WINONA FAIR 68 66 94 NE5 29.96R  

 
 
MSZ003>006-009-014>017-022>024-029>033-037>039-241100-  
NORTHEAST MISSISSIPPI  
 
CITY SKY/WX TMP DP RH WIND PRES REMARKS
 
COLUMBUS AFB CLEAR 68 65 91 N3 29.95S  
GOLDN TRIANGLE CLEAR 66 59 77 N6 N/A  
STARKVILLE FAIR 68 63 83 N3 29.97S  
TUPELO CLEAR 63 60 90 N8 29.98R  

 
 
MSZ040-058-241100-  
CENTRAL MISSISSIPPI  
 
CITY SKY/WX TMP DP RH WIND PRES REMARKS
 
JACKSON INTL MOCLDY 75 72 90 NE8 29.94R  
JACKSON HAWKNS CLOUDY 75 75 100 NE3 29.94R  
MADISON FAIR 72 68 88 NE3 29.94R  
MERIDIAN KEY CLOUDY 75 68 78 NE5 29.94R  
MERIDIAN NAS NOT AVBL  
RAYMOND FAIR 73 73 100 CALM 29.93R  
VICKSBURG VKS MOSUNNY 73 72 94 CALM 29.92R  

 
 
MSZ059>079-241100-  
SOUTH MISSISSIPPI  
 
CITY SKY/WX TMP DP RH WIND PRES REMARKS
 
COLUMBIA FAIR 72 N/A N/A CALM 29.93S  
HATTIESBURG MOCLDY 75 74 96 N3 29.91S  
LAUREL FAIR 74 74 100 CALM 29.92S  
MCCOMB PTCLDY 73 71 93 CALM 29.92R  
NATCHEZ CLOUDY 72 72 100 N5 29.92R FOG  
PINE BELT CLOUDY 73 72 96 N6 29.92S  

 
 
MSZ080>082-241100-  
COASTAL MISSISSIPPI  
 
CITY SKY/WX TMP DP RH WIND PRES REMARKS
 
BILOXI CLOUDY 76 73 91 N5 29.88R  
PASCAGOULA LGT RAIN 75 72 90 CALM 29.88S  
GULFPORT CLOUDY 77 74 90 CALM 29.88R  

 
 
LAZ007>009-015>016-023>026-241100-  
NORTHEAST LOUISIANA  
 
CITY SKY/WX TMP DP RH WIND PRES REMARKS
 
BASTROP FAIR 72 72 98 CALM 29.95R  
TALLULAH/VBURG MOCLDY 74 72 93 N6 29.93R  
VIDALIA N/A N/A N/A N/A MISG 29.90R  

 
 
 
CLICK HERE TO GO TO PREVIOUS BULLETINS.

The Nexlab MS Page Main Text Page